1488016800.45,64176,7.5,72776.3,-11.31,-18.59,-18.45,0,*6D
1488016801.67,64177,7.5,72778.3,-11.35,-17.31,-17.31,0,*65
1488016802.94,64178,7.5,72774.5,-11.35,-17.17,-17.11,0,*6C
1488016804.22,64179,7.5,72774.8,-11.39,-17.17,-17.21,0,*62
1488016805.44,64180,7.5,72774.5,-11.39,-16.55,-16.59,0,*6D
1488016806.65,64181,7.5,72770.5,-11.41,-16.55,-16.45,0,*6E
1488016807.91,64182,7.5,72770.3,-11.41,-16.31,-16.27,0,*6B
1488016809.2,64183,7.5,72772.3,-11.43,-17.97,-17.93,0,*6B
1488016810.44,64184,7.5,72768.8,-11.45,-18.01,-18.11,0,*6F
1488016811.73,64185,7.5,72766.3,-11.47,-17.59,-17.59,0,*6D
1488016813.02,64186,7.5,72762.3,-11.51,-17.93,-18.01,0,*6D
1488016814.28,64187,7.5,72762.8,-11.51,-17.87,-17.93,0,*6D
1488016815.55,64188,7.5,72764.0,-11.57,-17.41,-17.41,0,*61
1488016816.8,64189,7.5,72760.5,-11.57,-16.65,-16.59,0,*6F
1488016818.03,64190,7.5,72760.0,-11.59,-15.99,-15.99,0,*66
1488016819.27,64191,7.5,72760.5,-11.59,-15.71,-15.63,0,*64
1488016820.57,64192,7.5,72758.0,-11.59,-15.89,-15.85,0,*68
1488016821.81,64193,7.5,72756.3,-11.59,-16.59,-16.59,0,*65
1488016823.05,64194,7.5,72756.3,-11.59,-15.71,-15.63,0,*61
1488016824.32,64195,7.5,72752.8,-11.59,-15.57,-15.63,0,*64
1488016825.53,64196,7.5,72754.3,-11.57,-15.99,-16.03,0,*6E
1488016826.79,64197,7.5,72756.8,-11.57,-15.85,-15.85,0,*6F
1488016828.08,64198,7.5,72756.5,-11.59,-15.57,-15.57,0,*6E
1488016829.35,64199,7.5,72762.0,-11.59,-15.57,-15.63,0,*68
1488016830.61,64200,7.5,72760.5,-11.57,-15.57,-15.57,0,*62
1488016831.83,64201,7.5,72760.3,-11.57,-15.75,-15.71,0,*67
1488016833.05,64202,7.5,72762.3,-11.57,-15.71,-15.75,0,*64
1488016834.26,64203,7.5,72758.0,-11.57,-16.45,-16.37,0,*64
1488016835.48,64204,7.5,72756.5,-11.57,-16.59,-16.75,0,*68
1488016836.69,64205,7.5,72756.3,-11.61,-16.83,-16.93,0,*63
1488016837.98,64206,7.5,72762.3,-11.59,-16.23,-16.23,0,*6A
1488016839.22,64207,7.5,72762.5,-11.61,-15.95,-16.09,0,*66
1488016840.44,64208,7.5,72756.5,-11.61,-15.95,-15.95,0,*6F
1488016841.68,64209,7.5,72758.0,-11.61,-16.03,-16.09,0,*64
1488016842.9,64210,7.5,72756.8,-11.61,-15.67,-15.75,0,*65
1488016844.14,64211,7.5,72756.5,-11.61,-15.95,-15.89,0,*6A
1488016845.35,64212,7.5,72756.0,-11.61,-15.63,-15.63,0,*64
1488016846.56,64213,7.5,72752.5,-11.61,-15.63,-15.67,0,*61
1488016847.83,64214,7.5,72758.8,-11.61,-15.81,-15.81,0,*62
1488016849.1,64215,7.5,72762.5,-11.61,-15.39,-15.39,0,*63
1488016850.34,64216,7.5,72760.3,-11.61,-14.93,-14.89,0,*6B
1488016851.63,64217,7.5,72760.5,-11.59,-14.97,-14.97,0,*6A
1488016852.87,64218,7.5,72756.8,-11.59,-15.25,-15.11,0,*62
1488016854.12,64219,7.5,72760.8,-11.59,-15.25,-15.29,0,*68
1488016855.38,64220,7.5,72762.5,-11.59,-15.57,-15.63,0,*69
1488016856.62,64221,7.5,72762.8,-11.59,-15.49,-15.63,0,*67
1488016857.86,64222,7.5,72764.8,-11.59,-15.29,-15.15,0,*63
1488016859.1,64223,7.5,72766.5,-11.57,-14.89,-14.97,0,*6C
1488016860.37,64224,7.5,72766.5,-11.57,-14.97,-14.97,0,*64
1488016861.6,64225,7.5,72768.8,-11.55,-15.07,-15.11,0,*60
1488016862.89,64226,7.5,72768.0,-11.55,-14.97,-14.97,0,*64
1488016864.12,64227,7.5,72770.3,-11.57,-15.11,-15.01,0,*66
1488016865.4,64228,7.5,72768.8,-11.55,-15.29,-15.39,0,*6B
1488016866.66,64229,7.5,72772.3,-11.57,-15.57,-15.43,0,*6C
1488016867.92,64230,7.5,72770.0,-11.55,-15.21,-15.11,0,*60
1488016869.16,64231,7.5,72772.3,-11.55,-15.53,-15.67,0,*65
1488016870.45,64232,7.5,72768.5,-11.55,-15.43,-15.43,0,*61
1488016871.71,64233,7.5,72768.3,-11.57,-15.01,-14.97,0,*6C
1488016872.99,64234,7.5,72768.3,-11.51,-14.97,-14.93,0,*67
1488016874.24,64235,7.5,72774.0,-11.51,-15.25,-15.25,0,*62
1488016875.5,64236,7.5,72770.0,-11.51,-15.07,-14.97,0,*69
1488016876.73,64237,7.5,72768.5,-11.51,-14.69,-14.65,0,*6C
1488016878.0,64238,7.5,72768.8,-11.49,-14.55,-14.55,0,*66
1488016879.24,64239,7.5,72770.5,-11.49,-14.61,-14.51,0,*64
1488016880.53,64240,7.5,72772.5,-11.47,-15.81,-15.81,0,*67
1488016881.77,64241,7.5,72772.5,-11.47,-15.67,-15.75,0,*65
1488016883.04,64242,7.5,72772.8,-11.47,-14.93,-14.89,0,*6E
1488016884.31,64243,7.5,72770.3,-11.47,-14.89,-14.79,0,*6B
1488016885.56,64244,7.5,72770.3,-11.47,-15.53,-15.49,0,*68
1488016886.82,64245,7.5,72772.5,-11.47,-15.25,-15.35,0,*63
1488016888.08,64246,7.5,72774.0,-11.45,-15.21,-15.21,0,*63
1488016889.34,64247,7.5,72770.5,-11.45,-15.35,-15.35,0,*62
1488016890.58,64248,7.5,72772.3,-11.47,-15.07,-15.07,0,*6F
1488016891.82,64249,7.5,72768.0,-11.45,-15.15,-15.21,0,*6B
1488016893.06,64250,7.5,72772.5,-11.45,-14.83,-14.69,0,*60
1488016894.33,64251,7.5,72768.8,-11.45,-14.83,-14.83,0,*65
1488016895.59,64252,7.5,72770.3,-11.43,-14.89,-14.83,0,*6A
1488016896.85,64253,7.5,72770.3,-11.43,-14.75,-14.61,0,*64
1488016898.11,64254,7.5,72772.8,-11.43,-15.11,-15.01,0,*67
1488016899.39,64255,7.5,72772.0,-11.43,-15.57,-15.57,0,*67
1488016900.65,64256,7.5,72770.8,-11.43,-15.11,-15.21,0,*67
1488016901.86,64257,7.5,72768.3,-11.41,-15.11,-15.11,0,*67
1488016903.13,64258,7.5,72770.5,-11.43,-15.43,-15.49,0,*60
1488016904.39,64259,7.5,72770.3,-11.41,-15.39,-15.39,0,*69
1488016905.66,64260,7.5,72768.8,-11.43,-15.75,-15.85,0,*6E
1488016906.92,64261,7.5,72766.8,-11.43,-15.49,-15.35,0,*6B
1488016908.18,64262,7.5,72764.5,-11.45,-15.01,-15.01,0,*65
1488016909.44,64263,7.5,72770.8,-11.43,-14.89,-14.83,0,*68
1488016910.7,64264,7.5,72770.3,-11.43,-15.01,-14.89,0,*64
1488016911.95,64265,7.5,72768.0,-11.43,-15.11,-15.01,0,*65
1488016913.17,64266,7.5,72770.5,-11.41,-15.15,-15.29,0,*6A
1488016914.41,64267,7.5,72768.8,-11.41,-14.83,-14.69,0,*60
1488016915.65,64268,7.5,72768.0,-11.39,-15.07,-14.93,0,*68
1488016916.86,64269,7.5,72770.3,-11.41,-15.11,-15.15,0,*6E
1488016918.07,64270,7.5,72772.5,-11.41,-14.65,-14.65,0,*62
1488016919.33,64271,7.5,72768.5,-11.41,-14.51,-14.43,0,*60
1488016920.54,64272,7.5,72772.3,-11.41,-14.65,-14.65,0,*60
1488016921.78,64273,7.5,72772.3,-11.37,-14.61,-14.65,0,*64
1488016923.02,64274,7.5,72774.5,-11.39,-14.69,-14.79,0,*68
1488016924.29,64275,7.5,72768.5,-11.37,-14.93,-14.89,0,*6D
1488016925.57,64276,7.5,72768.0,-11.39,-15.39,-15.43,0,*66
1488016926.81,64277,7.5,72770.8,-11.37,-15.63,-15.63,0,*64
1488016928.03,64278,7.5,72764.3,-11.39,-15.11,-15.11,0,*65
1488016929.27,64279,7.5,72768.8,-11.39,-15.07,-14.97,0,*6C
1488016930.52,64280,7.5,72768.8,-11.39,-15.11,-14.97,0,*6D
1488016931.73,64281,7.5,72768.3,-11.35,-15.11,-15.07,0,*68
1488016933.02,64282,7.5,72774.3,-11.37,-15.35,-15.21,0,*6B
1488016934.32,64283,7.5,72770.3,-11.37,-15.35,-15.21,0,*6A
1488016935.58,64284,7.5,72770.0,-11.37,-15.21,-15.07,0,*6C
1488016936.85,64285,7.5,72764.3,-11.37,-15.35,-15.25,0,*68
1488016938.13,64286,7.5,72760.0,-11.37,-15.81,-15.75,0,*61
1488016939.4,64287,7.5,72762.5,-11.37,-15.95,-15.89,0,*66
1488016940.66,64288,7.5,72760.0,-11.37,-15.99,-15.81,0,*6D
1488016941.93,64289,7.5,72756.3,-11.37,-15.35,-15.11,0,*63
1488016943.18,64290,7.5,72752.8,-11.37,-14.89,-14.61,0,*6B
1488016944.42,64291,7.5,72752.3,-11.35,-14.75,-14.61,0,*6B
1488016945.63,64292,7.5,72750.3,-11.35,-14.65,-14.61,0,*69
1488016946.92,64293,7.5,72748.8,-11.33,-14.55,-14.43,0,*6D
1488016948.18,64294,7.5,72748.8,-11.33,-14.33,-14.05,0,*68
1488016949.46,64295,7.5,72748.5,-11.33,-14.19,-14.01,0,*65
1488016950.7,64296,7.5,72750.5,-11.31,-14.43,-14.29,0,*61
1488016951.92,64297,7.5,72752.3,-11.27,-14.65,-14.29,0,*63
1488016953.18,64298,7.5,72750.5,-11.27,-14.97,-14.79,0,*64
1488016954.43,64299,7.56,72756.0,-11.27,-15.39,-15.29,0,*64
1488016955.69,64300,7.5,72750.8,-11.25,-15.53,-15.25,0,*67
1488016956.93,64301,7.5,72750.5,-11.25,-15.29,-15.11,0,*6C
1488016958.17,64302,7.5,72746.5,-11.23,-14.93,-14.65,0,*6B
1488016959.43,64303,7.5,72746.3,-11.25,-14.93,-14.69,0,*60
1488016960.69,64304,7.5,72746.3,-11.25,-14.69,-14.51,0,*69
1488016961.97,64305,7.5,72744.3,-11.25,-14.79,-14.51,0,*69
1488016963.24,64306,7.5,72748.8,-11.25,-14.55,-14.23,0,*61
1488016964.49,64307,7.5,72750.0,-11.23,-14.51,-14.33,0,*63
1488016965.71,64308,7.5,72750.5,-11.23,-14.61,-14.23,0,*6E
1488016966.94,64309,7.5,72752.3,-11.25,-14.69,-14.65,0,*63
1488016968.18,64310,7.5,72752.0,-11.21,-15.11,-15.07,0,*64
1488016969.46,64311,7.5,72752.3,-11.21,-14.97,-14.93,0,*66
1488016970.7,64312,7.5,72758.0,-11.23,-14.75,-14.61,0,*66
1488016971.92,64313,7.5,72758.0,-11.23,-14.89,-14.65,0,*60
1488016973.19,64314,7.5,72762.3,-11.23,-14.79,-14.75,0,*69
1488016974.45,64315,7.5,72758.0,-11.23,-14.97,-14.93,0,*60
1488016975.73,64316,7.5,72762.5,-11.21,-15.21,-15.35,0,*60
1488016977.0,64317,7.5,72770.5,-11.21,-15.85,-15.95,0,*65
1488016978.25,64318,7.5,72770.0,-11.23,-16.09,-15.99,0,*63
1488016979.54,64319,7.5,72772.8,-11.25,-16.17,-16.27,0,*6D
1488016980.79,64320,7.5,72774.5,-11.27,-15.67,-15.81,0,*6E
1488016982.04,64321,7.5,72778.5,-11.27,-15.67,-15.81,0,*6F
1488016983.28,64322,7.5,72776.0,-11.27,-15.85,-15.99,0,*69
1488016984.5,64323,7.5,72776.8,-11.31,-16.41,-16.55,0,*67
1488016985.74,64324,7.5,72780.3,-11.31,-16.45,-16.51,0,*60
1488016987.02,64325,7.5,72784.0,-11.35,-16.09,-16.23,0,*68
1488016988.29,64326,7.5,72784.3,-11.33,-16.51,-16.59,0,*6D
1488016989.53,64327,7.5,72784.8,-11.35,-16.55,-16.65,0,*61
1488016990.76,64328,7.5,72790.3,-11.35,-16.55,-16.79,0,*63
1488016992.02,64329,7.5,72784.3,-11.37,-17.31,-17.45,0,*6D
1488016993.27,64330,7.5,72784.0,-11.39,-16.31,-16.41,0,*6F
1488016994.53,64331,7.5,72784.3,-11.41,-17.03,-17.03,0,*66
1488016995.79,64332,7.5,72784.0,-11.43,-16.59,-16.65,0,*68
1488016997.04,64333,7.5,72786.5,-11.43,-16.75,-16.75,0,*66
1488016998.28,64334,7.5,72788.3,-11.43,-16.89,-16.79,0,*6E
1488016999.57,64335,7.5,72790.0,-11.43,-17.11,-17.07,0,*67
1488017000.83,64336,7.5,72788.0,-11.45,-17.21,-17.25,0,*61
1488017002.12,64337,7.5,72786.8,-11.47,-17.03,-17.03,0,*66
1488017003.36,64338,7.5,72788.0,-11.47,-16.83,-16.93,0,*68
1488017004.65,64339,7.5,72790.3,-11.51,-17.17,-17.17,0,*6F
1488017005.91,64340,7.5,72784.3,-11.51,-17.79,-17.73,0,*6B
1488017007.12,64341,7.5,72780.0,-11.57,-17.69,-17.69,0,*66
1488017008.39,64342,7.5,72778.3,-11.57,-17.41,-17.41,0,*65
1488017009.65,64343,7.5,72772.3,-11.57,-17.25,-17.25,0,*64
1488017010.88,64344,7.5,72772.0,-11.61,-18.49,-18.59,0,*67
1488017012.15,64345,7.5,72768.8,-11.61,-18.93,-18.93,0,*67
1488017013.39,64346,7.5,72772.0,-11.67,-19.07,-19.17,0,*63
1488017014.68,64347,7.56,72776.8,-11.71,-18.59,-18.59,0,*64
1488017015.97,64348,7.5,72772.3,-11.73,-18.01,-18.01,0,*69
1488017017.24,64349,7.5,72772.3,-11.75,-17.97,-17.97,0,*6E
1488017018.49,64350,7.5,72768.8,-11.79,-18.55,-18.65,0,*69
1488017019.79,64351,7.5,72756.5,-11.81,-17.45,-17.45,0,*6C
1488017021.06,64352,7.5,72764.5,-11.81,-17.45,-17.49,0,*63
1488017022.3,64353,7.5,72768.0,-11.81,-18.65,-18.65,0,*6E
1488017023.57,64354,7.5,72768.3,-11.85,-17.79,-17.69,0,*6C
1488017024.86,64355,7.5,72766.8,-11.85,-17.63,-17.55,0,*69
1488017026.15,64356,7.5,72768.3,-11.85,-17.21,-17.21,0,*6F
1488017027.4,64357,7.5,72770.3,-11.89,-17.35,-17.35,0,*62
1488017028.68,64358,7.5,72770.0,-11.87,-17.21,-17.25,0,*67
1488017029.92,64359,7.5,72770.0,-11.89,-16.97,-16.97,0,*6C
1488017031.21,64360,7.5,72770.5,-11.89,-17.11,-17.11,0,*66
1488017032.48,64361,7.5,72768.5,-11.89,-17.21,-17.35,0,*62
1488017033.73,64362,7.5,72770.0,-11.95,-17.41,-17.31,0,*6E
1488017034.95,64363,7.5,72762.5,-11.95,-16.89,-16.97,0,*67
1488017036.16,64364,7.5,72758.8,-11.95,-16.89,-16.89,0,*6F
1488017037.43,64365,7.5,72762.3,-11.95,-17.03,-17.11,0,*6D
1488017038.71,64366,7.5,72762.8,-11.95,-17.17,-17.17,0,*6D
1488017039.98,64367,7.5,72764.3,-11.95,-17.17,-17.17,0,*6C
1488017041.25,64368,7.5,72762.3,-11.95,-17.11,-17.17,0,*65
1488017042.47,64369,7.5,72764.0,-11.95,-16.89,-16.97,0,*6D
1488017043.69,64370,7.5,72762.8,-11.99,-16.55,-16.59,0,*6A
1488017044.93,64371,7.5,72764.3,-11.99,-16.75,-16.65,0,*66
1488017046.2,64372,7.5,72762.0,-11.97,-17.21,-17.31,0,*6B
1488017047.44,64373,7.5,72764.5,-11.97,-16.93,-16.89,0,*60
1488017048.71,64374,7.5,72760.3,-11.99,-16.65,-16.65,0,*62
1488017049.91,64375,7.5,72760.5,-11.99,-15.99,-15.99,0,*63
1488017051.18,64376,7.5,72760.3,-11.99,-15.89,-15.85,0,*6C
1488017052.4,64377,7.5,72756.8,-11.99,-15.67,-15.71,0,*66
1488017053.67,64378,7.5,72756.5,-11.97,-15.89,-15.99,0,*61
1488017054.96,64379,7.5,72766.3,-11.97,-15.57,-15.43,0,*64
1488017056.26,64380,7.5,72756.5,-11.97,-16.27,-16.27,0,*67
1488017057.47,64381,7.5,72758.0,-11.95,-15.71,-15.67,0,*63
1488017058.75,64382,7.5,72756.5,-11.95,-15.39,-15.39,0,*67
1488017059.99,64383,7.5,72756.0,-11.91,-15.35,-15.11,0,*64
1488017061.26,64384,7.5,72754.3,-11.91,-15.35,-15.21,0,*60
1488017062.51,64385,7.5,72752.5,-11.89,-15.29,-15.29,0,*6D
1488017063.76,64386,7.5,72754.3,-11.89,-15.75,-15.75,0,*6E
1488017065.06,64387,7.5,72754.5,-11.89,-15.43,-15.35,0,*6E
1488017066.28,64388,7.5,72752.0,-11.87,-15.67,-15.75,0,*6D
1488017067.55,64389,7.5,72752.8,-11.87,-16.31,-16.31,0,*6F
1488017068.8,64390,7.5,72754.5,-11.87,-15.81,-15.75,0,*6C
1488017070.07,64391,7.5,72756.8,-11.89,-15.35,-15.29,0,*65
1488017071.3,64392,7.5,72752.8,-11.87,-15.49,-15.49,0,*65
1488017072.57,64393,7.5,72752.3,-11.85,-15.57,-15.63,0,*61
1488017073.85,64394,7.5,72758.3,-11.85,-15.01,-14.97,0,*6F
1488017075.1,64395,7.56,72760.5,-11.85,-15.11,-14.89,0,*60
1488017076.33,64396,7.5,72758.5,-11.83,-15.11,-15.01,0,*64
1488017077.61,64397,7.5,72760.0,-11.83,-15.43,-15.39,0,*69
1488017078.85,64398,7.5,72764.0,-11.83,-15.63,-15.57,0,*6C
1488017080.13,64399,7.5,72764.3,-11.81,-15.39,-15.25,0,*65
1488017081.42,64400,7.5,72764.3,-11.81,-14.97,-14.97,0,*6F
1488017082.67,64401,7.5,72766.5,-11.79,-15.49,-15.39,0,*6E
1488017083.92,64402,7.5,72772.3,-11.79,-15.57,-15.53,0,*6E
1488017085.19,64403,7.5,72770.8,-11.79,-15.81,-15.85,0,*6F
1488017086.47,64404,7.5,72772.0,-11.79,-15.85,-15.81,0,*68
1488017087.74,64405,7.5,72764.8,-11.79,-15.81,-15.81,0,*6D
1488017088.96,64406,7.5,72772.5,-11.79,-16.41,-16.45,0,*6A
1488017090.22,64407,7.5,72772.5,-11.81,-16.27,-16.37,0,*69
1488017091.44,64408,7.5,72768.5,-11.79,-16.37,-16.45,0,*65
1488017092.74,64409,7.5,72776.5,-11.81,-17.17,-17.25,0,*67
1488017093.96,64410,7.5,72780.0,-11.79,-17.87,-18.07,0,*6E
1488017095.2,64411,7.5,72772.8,-11.85,-18.99,-19.13,0,*68
1488017096.45,64412,7.5,72762.5,-11.87,-18.93,-19.03,0,*62
1488017097.72,64413,7.5,72762.3,-11.89,-18.31,-18.45,0,*66
1488017098.96,64414,7.5,72756.3,-11.95,-17.93,-18.17,0,*6C
1488017100.23,64415,7.5,72754.5,-11.97,-18.55,-18.69,0,*63
1488017101.47,64416,7.5,72758.0,-11.99,-17.93,-18.11,0,*64
1488017102.71,64417,7.5,72760.8,-11.99,-17.97,-18.25,0,*66
1488017103.98,64418,7.5,72754.3,-12.01,-17.11,-17.35,0,*6B
1488017105.23,64419,7.5,72758.0,-12.01,-16.79,-16.97,0,*6C
1488017106.49,64420,7.5,72758.0,-12.01,-17.97,-18.25,0,*60
1488017107.78,64421,7.5,72760.5,-12.01,-18.31,-18.59,0,*69
1488017109.05,64422,7.5,72760.5,-12.07,-18.01,-18.21,0,*60
1488017110.33,64423,7.5,72760.8,-12.07,-17.63,-17.79,0,*68
1488017111.62,64424,7.5,72760.8,-12.07,-17.63,-17.79,0,*6F
1488017112.87,64425,7.5,72762.3,-12.09,-17.59,-17.63,0,*62
1488017114.15,64426,7.5,72768.0,-12.11,-17.45,-17.35,0,*66
1488017115.38,64427,7.5,72768.3,-12.09,-17.21,-17.31,0,*68
1488017116.69,64428,7.5,72768.5,-12.11,-17.17,-17.07,0,*6E
1488017117.9,64429,7.5,72774.5,-12.09,-16.55,-16.55,0,*67
1488017119.17,64430,7.5,72768.5,-12.11,-17.17,-17.31,0,*62
1488017120.43,64431,7.5,72780.5,-12.09,-17.59,-17.79,0,*6C
1488017121.66,64432,7.5,72778.3,-12.09,-17.21,-17.49,0,*63
1488017122.92,64433,7.5,72780.3,-12.09,-17.21,-17.59,0,*63
1488017124.19,64434,7.5,72776.8,-12.09,-17.07,-17.45,0,*6D
1488017125.45,64435,7.5,72772.8,-12.11,-17.35,-17.79,0,*6B
1488017126.75,64436,7.5,72784.5,-12.11,-17.03,-17.59,0,*6F
1488017127.95,64437,7.5,72782.3,-12.09,-18.41,-18.99,0,*6D
1488017129.17,64438,7.5,72784.3,-12.09,-19.47,-19.95,0,*68
1488017130.46,64439,7.5,72778.0,-12.11,-19.57,-19.81,0,*64
1488017131.73,64440,7.5,72772.5,-12.11,-20.19,-20.63,0,*6C
1488017132.94,64441,7.5,72774.0,-12.17,-20.69,-20.29,0,*62
1488017134.16,64442,7.5,72780.3,-12.13,-21.17,-20.39,0,*6C
1488017135.38,64443,7.5,72780.3,-12.13,-22.53,-20.69,0,*6B
1488017136.6,64444,7.5,72780.8,-12.17,-22.67,-20.25,0,*67
1488017137.83,64445,7.5,72790.8,-12.17,-21.47,-18.59,0,*67
1488017139.06,64446,7.5,72794.5,-12.17,-21.47,-18.55,0,*68
1488017140.35,64447,7.5,72786.8,-12.19,-20.35,-17.55,0,*6C
1488017141.61,64448,7.5,72786.5,-12.17,-17.79,-16.09,0,*69
1488017142.85,64449,7.5,72786.8,-12.13,-17.35,-16.31,0,*6F
1488017144.13,64450,7.5,72782.3,-12.11,-16.17,-15.25,0,*62
1488017145.36,64451,7.5,72778.8,-12.09,-15.57,-14.89,0,*6A
1488017146.62,64452,7.5,72776.5,-12.09,-15.57,-14.97,0,*66
1488017147.85,64453,7.5,72776.8,-12.05,-15.53,-15.25,0,*67
1488017149.09,64454,7.5,72780.0,-12.05,-16.69,-16.55,0,*6E
1488017150.39,64455,7.5,72778.5,-12.01,-17.21,-17.11,0,*67
1488017151.66,64456,7.5,72774.0,-12.05,-17.17,-17.17,0,*63
1488017152.88,64457,7.5,72774.0,-12.05,-16.97,-16.83,0,*67
1488017154.17,64458,7.5,72774.5,-12.07,-17.17,-17.11,0,*69
1488017155.41,64459,7.5,72770.3,-12.07,-16.89,-16.83,0,*64
1488017156.68,64460,7.5,72768.5,-12.07,-15.35,-15.11,0,*62
1488017157.94,64461,7.5,72778.0,-12.05,-14.97,-14.97,0,*67
1488017159.24,64462,7.5,72780.3,-12.01,-16.09,-16.09,0,*60
1488017160.54,64463,7.5,72762.8,-12.01,-16.17,-16.09,0,*6E
1488017161.84,64464,7.5,72748.8,-12.01,-15.43,-15.35,0,*67
1488017163.08,64465,7.5,72738.0,-11.99,-15.71,-15.57,0,*61
1488017164.32,64466,7.5,72740.3,-11.99,-16.23,-16.37,0,*63
1488017165.59,64467,7.5,72748.8,-11.99,-16.65,-16.51,0,*60
1488017166.83,64468,7.5,72752.3,-11.99,-16.69,-16.79,0,*69
1488017168.08,64469,7.5,72758.8,-12.01,-15.95,-15.95,0,*6B
1488017169.37,64470,7.5,72762.0,-12.01,-15.81,-15.81,0,*63
1488017170.67,64471,7.5,72762.3,-12.01,-15.81,-15.81,0,*62
1488017171.89,64472,7.5,72764.8,-11.99,-15.95,-15.95,0,*63
1488017173.16,64473,7.5,72768.8,-11.99,-15.81,-15.81,0,*62
1488017174.42,64474,7.5,72768.3,-11.99,-16.23,-16.23,0,*65
1488017175.72,64475,7.5,72768.3,-12.01,-16.17,-16.17,0,*66
1488017176.95,64476,7.5,72774.0,-11.99,-15.75,-15.75,0,*67
1488017178.19,64477,7.5,72774.8,-11.99,-15.57,-15.49,0,*69
1488017179.44,64478,7.56,72778.0,-11.99,-15.53,-15.43,0,*68
1488017180.72,64479,7.5,72776.5,-11.99,-15.39,-15.39,0,*68
1488017181.98,64480,7.5,72772.8,-11.97,-16.03,-16.13,0,*61
1488017183.25,64481,7.5,72762.3,-11.99,-17.21,-17.21,0,*6F
1488017184.46,64482,7.5,72756.3,-11.99,-15.99,-15.99,0,*6C
1488017185.68,64483,7.5,72758.0,-11.99,-15.75,-15.75,0,*6D
1488017186.96,64484,7.5,72762.5,-11.99,-16.17,-16.17,0,*6A
1488017188.2,64485,7.5,72756.5,-11.99,-15.95,-15.81,0,*6E
1488017189.41,64486,7.5,72754.5,-11.99,-15.99,-15.99,0,*68
1488017190.63,64487,7.5,72748.3,-11.99,-15.67,-15.53,0,*6E
1488017191.88,64488,7.56,72754.0,-11.99,-15.89,-15.75,0,*65
1488017193.12,64489,7.5,72748.8,-11.99,-15.89,-15.99,0,*66
1488017194.39,64490,7.5,72748.5,-11.97,-16.59,-16.65,0,*6E
1488017195.66,64491,7.5,72748.3,-11.99,-17.03,-17.03,0,*6E
1488017196.91,64492,7.5,72752.5,-11.99,-17.41,-17.49,0,*65
1488017198.2,64493,7.5,72748.3,-12.01,-17.59,-17.55,0,*62
1488017199.44,64494,7.56,72752.0,-12.01,-16.45,-16.37,0,*6C
1488017200.71,64495,7.5,72750.3,-12.05,-16.13,-16.13,0,*6C
1488017201.97,64496,7.5,72752.8,-12.05,-16.51,-16.51,0,*6F
1488017203.22,64497,7.5,72750.8,-12.05,-16.51,-16.55,0,*6A
1488017204.5,64498,7.5,72752.0,-12.07,-16.51,-16.51,0,*63
1488017205.75,64499,7.5,72756.8,-12.07,-16.41,-16.41,0,*62
1488017207.04,64500,7.5,72758.5,-12.07,-16.65,-16.69,0,*6F
1488017208.31,64501,7.5,72758.3,-12.07,-16.65,-16.55,0,*61
1488017209.61,64502,7.5,72756.5,-12.07,-16.13,-16.13,0,*61
1488017210.87,64503,7.56,72764.3,-12.07,-15.25,-15.21,0,*64
1488017212.12,64504,7.5,72762.5,-12.05,-15.35,-15.25,0,*64
1488017213.35,64505,7.5,72756.5,-12.05,-15.63,-15.53,0,*67
1488017214.56,64506,7.5,72760.5,-12.05,-15.67,-15.63,0,*63
1488017215.83,64507,7.5,72762.5,-12.05,-15.35,-15.35,0,*66
1488017217.06,64508,7.5,72762.5,-12.05,-15.21,-15.11,0,*6A
1488017218.33,64509,7.5,72762.8,-12.01,-15.07,-15.01,0,*6A
1488017219.59,64510,7.5,72764.8,-11.99,-14.79,-14.79,0,*66
1488017220.8,64511,7.5,72762.3,-11.99,-14.69,-14.69,0,*67
1488017222.04,64512,7.5,72762.0,-11.97,-15.15,-15.15,0,*6A
1488017223.29,64513,7.5,72766.5,-11.97,-15.75,-15.75,0,*6B
1488017224.51,64514,7.5,72766.3,-11.99,-15.71,-15.71,0,*62
1488017225.76,64515,7.5,72764.0,-11.97,-15.25,-15.25,0,*6D
1488017227.05,64516,7.56,72768.3,-11.97,-15.01,-14.83,0,*65
1488017228.32,64517,7.5,72766.8,-11.95,-14.93,-14.83,0,*6C
1488017229.56,64518,7.56,72774.5,-11.95,-15.11,-14.93,0,*69
1488017230.8,64519,7.5,72774.3,-11.91,-14.79,-14.65,0,*6A
1488017232.07,64520,7.5,72774.5,-11.91,-14.79,-14.79,0,*6D
1488017233.34,64521,7.5,72772.0,-11.91,-14.93,-14.83,0,*6D
1488017234.61,64522,7.5,72774.8,-11.91,-14.83,-14.79,0,*6A
1488017235.86,64523,7.56,72776.5,-11.89,-15.29,-15.15,0,*68
1488017237.11,64524,7.56,72782.0,-11.87,-15.15,-14.93,0,*61
1488017238.4,64525,7.56,72780.0,-11.89,-14.79,-14.75,0,*6D
1488017239.62,64526,7.56,72782.8,-11.87,-15.07,-15.15,0,*6F
1488017240.86,64527,7.5,72780.5,-11.87,-16.23,-16.37,0,*68
1488017242.13,64528,7.5,72782.5,-11.87,-16.69,-16.69,0,*62
1488017243.37,64529,7.56,72786.3,-11.89,-16.93,-16.97,0,*69
1488017244.59,64530,7.5,72784.0,-11.91,-16.97,-16.97,0,*6C
1488017245.83,64531,7.5,72786.5,-11.91,-16.89,-17.03,0,*6E
1488017247.1,64532,7.5,72788.5,-11.95,-17.11,-17.17,0,*6C
1488017248.4,64533,7.56,72790.0,-11.97,-17.17,-17.17,0,*69
1488017249.65,64534,7.5,72782.0,-11.97,-16.79,-16.75,0,*62
1488017250.92,64535,7.5,72782.3,-11.99,-15.85,-15.85,0,*61
1488017252.14,64536,7.56,72782.8,-11.99,-15.29,-15.15,0,*6D
1488017253.41,64537,7.5,72776.3,-11.97,-15.39,-15.25,0,*60
1488017254.66,64538,7.5,72776.8,-11.95,-15.25,-15.21,0,*64
1488017255.92,64539,7.5,72776.5,-11.95,-15.21,-15.21,0,*61
1488017257.18,64540,7.5,72778.3,-11.95,-14.97,-14.93,0,*6B
1488017258.45,64541,7.56,72778.8,-11.91,-15.81,-15.81,0,*6A
1488017259.67,64542,7.56,72780.0,-11.91,-16.89,-16.97,0,*66
1488017260.94,64543,7.5,72776.0,-11.91,-17.03,-17.11,0,*6B
1488017262.15,64544,7.56,72770.8,-11.95,-17.31,-17.31,0,*6B
1488017263.38,64545,7.5,72760.8,-11.99,-16.55,-16.55,0,*66
1488017264.67,64546,7.56,72762.5,-11.97,-17.07,-17.17,0,*6A
1488017265.91,64547,7.5,72764.8,-11.99,-17.21,-17.31,0,*65
1488017267.15,64548,7.56,72764.8,-11.99,-17.21,-17.31,0,*6A
1488017268.37,64549,7.5,72758.0,-11.99,-16.83,-16.83,0,*6A
1488017269.59,64550,7.5,72752.8,-11.99,-16.37,-16.37,0,*62
1488017270.86,64551,7.56,72752.5,-12.01,-16.83,-16.69,0,*65
1488017272.12,64552,7.56,72748.3,-11.99,-16.65,-16.51,0,*67
1488017273.34,64553,7.56,72748.5,-11.99,-16.83,-16.83,0,*61
1488017274.64,64554,7.5,72748.8,-12.01,-15.43,-15.35,0,*65
1488017275.9,64555,7.56,72750.0,-12.01,-14.79,-14.69,0,*64
1488017277.16,64556,7.5,72746.3,-11.99,-14.75,-14.75,0,*64
1488017278.43,64557,7.5,72748.0,-11.99,-14.79,-14.75,0,*69
1488017279.67,64558,7.5,72750.0,-11.97,-14.89,-14.69,0,*6A
1488017280.94,64559,7.5,72750.3,-11.97,-14.83,-14.65,0,*6D
1488017282.2,64560,7.5,72754.8,-11.95,-15.21,-15.21,0,*6D
1488017283.43,64561,7.5,72754.8,-11.95,-15.63,-15.53,0,*6F
1488017284.67,64562,7.5,72758.3,-11.95,-15.81,-15.71,0,*60
1488017285.94,64563,7.5,72760.0,-11.95,-15.39,-15.35,0,*62
1488017287.19,64564,7.56,72764.0,-11.91,-15.49,-15.35,0,*66
1488017288.44,64565,7.56,72766.5,-11.91,-15.39,-15.25,0,*61
1488017289.68,64566,7.5,72764.8,-11.95,-14.83,-14.69,0,*6F
1488017290.93,64567,7.5,72768.0,-11.91,-14.51,-14.37,0,*6E
1488017292.19,64568,7.5,72768.0,-11.89,-15.01,-15.07,0,*6E
1488017293.46,64569,7.56,72770.0,-11.89,-14.79,-14.61,0,*60
1488017294.72,64570,7.5,72768.8,-11.87,-14.93,-14.75,0,*67
1488017295.97,64571,7.5,72768.3,-11.87,-14.93,-14.89,0,*65
1488017297.26,64572,7.5,72770.8,-11.85,-14.51,-14.43,0,*6C
1488017298.53,64573,7.5,72770.3,-11.85,-14.61,-14.51,0,*6D
1488017299.78,64574,7.5,72766.0,-11.83,-14.43,-14.29,0,*63
1488017301.04,64575,7.5,72766.8,-11.83,-15.01,-14.97,0,*60
1488017302.28,64576,7.5,72768.0,-11.79,-15.07,-14.93,0,*64
1488017303.57,64577,7.5,72768.5,-11.81,-14.97,-14.83,0,*6B
1488017304.81,64578,7.5,72770.3,-11.79,-15.07,-14.83,0,*6B
1488017306.05,64579,7.5,72772.8,-11.81,-14.69,-14.65,0,*6C
1488017307.3,64580,7.5,72774.3,-11.79,-14.65,-14.51,0,*66
1488017308.54,64581,7.56,72778.0,-11.79,-14.79,-14.65,0,*6D